Location: Cronhütte
(48.9135°N, 9.6869°E)
Time: 03:18:57
(UTC+00:00)

ISS - Visible Passes

Search period start: 19 January 2026 00:00
Search period end: 29 January 2026 00:00
Orbit: 413 x 424 km, 51.6° (Epoch: 18 January)

Date Brightness Start Highest point End Pass type
(mag) Time Alt. Az. Time Alt. Az. Time Alt. Az.
19 Jan -3.5 17:40:14 10° W 17:43:32 55° N 17:44:17 43° NE visible
20 Jan -3.6 16:52:18 10° W 16:55:38 64° NNW 16:58:23 14° ENE visible
20 Jan -2.0 18:29:23 10° WNW 18:31:20 30° WNW 18:31:20 30° WNW visible
21 Jan -3.4 17:41:28 10° WNW 17:44:44 51° N 17:45:26 42° NE visible
21 Jan -0.2 19:18:20 10° WNW 19:18:23 10° WNW 19:18:23 10° WNW visible
22 Jan -3.4 16:53:30 10° W 16:56:47 51° N 16:59:33 14° ENE visible
22 Jan -2.2 18:30:26 10° WNW 18:32:30 34° WNW 18:32:30 34° WNW visible
23 Jan -3.7 17:42:31 10° WNW 17:45:51 62° NNE 17:46:37 45° ENE visible
23 Jan -0.2 19:19:23 10° WNW 19:19:34 11° WNW 19:19:34 11° WNW visible
24 Jan -3.5 16:54:34 10° WNW 16:57:51 54° N 17:00:48 12° E visible
24 Jan -2.4 18:31:24 10° WNW 18:33:45 40° W 18:33:45 40° W visible
25 Jan -3.8 17:43:25 10° WNW 17:46:46 85° SSW 17:47:59 37° ESE visible
25 Jan -0.3 19:20:41 10° W 19:20:56 11° W 19:20:56 11° W visible
26 Jan -3.8 16:55:25 10° WNW 16:58:47 74° NNE 17:02:07 10° ESE visible
26 Jan -2.1 18:32:24 10° W 18:35:16 29° SW 18:35:16 29° SW visible
27 Jan -2.7 17:44:16 10° WNW 17:47:28 43° SSW 17:49:43 17° SE visible
28 Jan -3.3 16:56:12 10° WNW 16:59:30 63° SSW 17:02:49 10° SE visible
28 Jan -0.9 18:34:02 10° WSW 18:35:45 13° SW 18:37:20 10° SSW visible
